Wind_Speed
27 27 26 24 23 22 22 22 20 19 18 15 13 11 10 8 7 5 4 3 2 2 2 2 1 1 1 2 3 4 5 6 6 6 7 7 9 9 10 11 11 12 12 13
27 26 25 24 23 23 23 22 21 19 19 16 13 11 11 9 8 6 5 3 3 2 2 1 1 1 1 2 2 3 4 5 5 6 6 7 8 9 10 11 11 12 13 13
24 25 26 25 23 24 23 22 20 19 18 15 13 12 12 11 9 7 5 4 3 3 2 1 1 0 0 1 2 3 4 5 5 6 6 7 8 9 10 11 12 12 13 13
25 25 25 24 23 22 23 21 20 19 17 16 14 13 14 11 8 6 5 4 3 3 2 2 1 0 0 1 2 2 3 4 5 5 6 7 8 9 9 10 11 12 13 13
24 24 23 23 23 23 22 22 20 18 16 15 15 14 12 10 7 5 3 3 3 2 2 1 1 1 0 1 1 2 3 4 5 5 6 7 8 8 9 10 11 12 13 13
23 22 22 22 22 22 23 22 21 19 18 16 15 13 10 8 6 4 3 2 2 1 1 1 1 1 1 0 1 2 4 4 4 5 6 6 7 8 9 10 11 12 13 13
22 22 22 21 22 22 23 22 22 19 18 16 14 12 9 8 6 4 3 2 1 1 1 1 2 2 1 1 1 2 3 4 5 5 6 7 8 8 9 10 11 12 13 13
21 21 21 21 21 21 22 21 20 18 18 17 15 13 10 8 6 5 4 2 2 2 2 2 2 2 2 2 2 2 3 4 5 6 7 7 8 9 10 10 11 12 13 14
20 20 20 20 21 21 21 22 20 19 18 16 15 13 11 9 7 6 4 3 3 3 2 2 3 3 2 2 1 2 3 4 4 5 6 8 9 9 10 10 11 12 14 14
18 19 20 21 22 21 20 19 19 18 18 16 14 13 9 9 8 6 4 3 3 3 3 3 3 2 2 1 0 1 2 3 4 5 6 7 9 10 10 11 12 13 14 14
16 17 18 19 18 19 18 18 18 17 15 14 13 11 9 8 7 6 5 4 4 4 4 3 3 2 2 2 2 2 3 4 5 5 6 8 9 10 11 12 13 14 15 16
14 15 16 17 17 17 17 16 16 16 16 14 13 11 10 9 7 7 6 5 5 4 4 4 3 3 3 3 3 4 4 5 6 7 8 9 10 11 12 13 14 15 16 17
14 15 16 17 18 18 17 16 14 14 14 14 13 11 11 9 8 7 7 6 5 5 5 5 4 4 4 5 5 6 6 7 8 8 9 10 11 12 13 14 16 16 17 18
14 15 14 14 14 16 16 16 15 15 14 13 12 11 10 9 8 7 7 6 5 5 6 6 6 6 6 7 7 8 8 9 10 10 11 12 13 14 15 16 17 18 18 19
14 14 14 14 14 15 15 15 16 15 14 13 12 11 9 9 9 8 8 7 7 7 7 8 8 8 8 9 9 10 10 11 11 12 13 14 15 16 17 18 19 20 20 21
14 14 14 15 15 15 16 16 16 16 14 13 12 11 10 10 10 10 10 9 9 9 9 9 9 9 10 10 11 11 12 13 14 14 15 16 17 18 19 20 21 22 23 23
15 14 15 15 15 15 15 15 16 16 15 14 13 11 12 12 11 11 11 11 11 11 11 11 11 11 12 12 13 13 14 15 16 17 18 19 20 21 22 23 24 25 25 26
17 17 16 16 16 15 13 15 15 15 15 14 13 13 12 12 13 13 12 13 13 12 12 12 13 13 14 14 15 16 17 18 19 20 20 21 22 23 24 25 27 27 28 29
18 19 18 17 17 14 14 14 15 15 14 14 13 14 14 14 14 13 14 14 14 14 14 14 14 15 16 16 17 18 19 20 21 22 23 24 25 26 27 28 29 31 32 32
19 19 19 18 18 16 14 15 15 15 14 14 14 14 15 15 15 14 15 15 16 16 16 16 16 17 18 19 20 21 22 23 24 25 26 27 28 29 30 31 33 34 35 35
20 20 20 19 19 17 16 16 16 16 13 15 15 15 16 16 16 16 16 17 18 17 18 18 19 20 21 22 23 24 25 26 27 28 29 30 31 32 33 35 36 37 38 39
22 22 21 21 20 17 18 18 18 17 17 17 17 17 17 17 18 18 18 19 19 19 20 21 22 23 25 26 26 27 28 29 30 31 32 33 34 35 36 38 39 41 42 42
25 24 24 23 21 20 20 20 20 19 19 19 19 20 20 19 19 20 21 21 22 23 23 24 25 27 28 28 29 30 31 32 33 34 35 36 37 38 40 41 43 44 45 46
27 27 26 25 23 23 23 22 22 22 21 21 21 22 22 22 22 23 24 24 25 26 26 27 28 29 30 31 32 33 34 35 36 37 38 39 40 42 43 45 46 47 49 50
29 29 28 27 26 26 25 25 24 24 24 24 24 25 25 25 26 26 27 27 28 29 29 30 31 32 33 34 35 37 37 38 39 40 41 42 43 45 46 47 49 50 52 54
31 31 30 30 29 30 29 29 28 27 27 26 27 27 28 28 28 28 29 30 31 32 33 33 34 35 36 37 38 39 40 41 41 42 43 45 46 47 48 50 52 53 55 57
Wind_Direction
188 188 187 187 191 193 190 188 188 185 181 186 189 191 195 199 198 198 209 213 213 231 250 262 257 291 342 349 350 353 349 350 351 353 352 354 357 358 357 358 358 358 359 359
185 184 183 186 190 193 189 185 182 181 178 181 187 193 195 196 193 195 203 204 210 228 252 259 253 295 349 354 352 354 352 350 351 353 353 356 358 359 360 359 358 360 360 359
185 184 186 189 190 189 185 178 178 181 177 180 187 190 187 189 189 190 197 208 212 224 238 240 253 232 357 352 348 354 357 354 356 356 357 0 2 1 1 1 2 2 0 1
182 185 185 186 185 182 179 177 178 177 181 184 185 180 180 180 179 184 189 202 205 204 212 235 269 258 346 2 2 6 4 3 360 357 359 2 3 2 1 1 0 360 360 1
179 182 181 182 181 177 173 171 171 174 180 183 182 179 178 176 173 179 185 188 180 189 201 221 244 244 290 25 21 14 10 9 3 359 360 3 3 2 1 359 357 357 357 357
176 178 177 178 179 176 175 174 176 178 182 184 181 181 177 176 177 178 173 175 163 172 188 211 215 211 210 55 27 18 18 17 14 8 4 2 1 1 359 358 358 358 357 357
175 175 177 178 178 175 176 178 178 181 185 185 180 176 174 178 185 189 176 176 172 169 178 197 200 192 179 134 67 41 29 25 22 17 12 7 4 2 1 359 357 357 359 360
171 170 175 179 180 177 180 185 185 188 188 189 188 186 182 181 185 187 182 184 200 201 192 180 178 168 151 127 87 59 33 25 23 19 16 11 6 2 359 357 356 356 356 357
170 170 173 177 180 185 186 188 192 195 195 198 192 190 191 189 185 184 182 186 201 207 201 185 179 170 153 132 94 52 26 17 15 12 9 6 3 358 356 356 356 354 353 352
170 172 172 175 180 184 187 188 190 195 197 200 200 196 192 187 179 180 185 193 206 210 202 194 193 190 186 200 309 355 358 354 354 356 357 357 357 356 354 353 353 352 351 351
166 169 176 180 182 185 189 192 194 198 202 201 199 192 192 186 186 193 203 213 218 213 207 206 209 213 223 247 273 293 311 322 329 334 339 343 345 347 347 346 346 345 345 346
162 167 174 179 180 184 192 201 205 208 209 206 207 203 203 195 192 197 202 210 216 212 210 216 223 232 246 263 276 285 296 305 312 319 326 331 334 336 339 340 340 339 339 339
175 178 178 179 185 190 196 200 206 211 214 215 216 208 212 208 203 205 208 212 216 217 221 230 241 249 256 270 279 285 291 298 305 311 317 321 325 328 330 332 334 333 332 332
184 186 189 192 194 197 200 206 214 217 221 221 220 214 210 214 215 217 219 222 226 231 238 245 252 258 264 273 280 286 289 295 299 305 310 314 317 320 323 325 327 327 327 327
194 192 194 197 201 203 205 209 216 222 226 227 222 220 217 222 226 230 231 233 236 241 244 249 256 263 270 277 282 286 289 293 296 301 306 309 311 314 316 318 320 321 321 320
201 201 201 202 206 208 209 213 217 223 225 226 225 226 231 231 232 234 237 240 243 246 250 256 261 268 273 278 283 286 290 293 296 300 304 306 308 310 311 313 315 316 315 314
211 214 214 213 215 214 213 217 221 224 227 228 229 232 231 232 236 239 241 243 246 251 257 261 266 270 274 278 281 284 288 292 295 298 301 303 305 307 308 310 311 312 312 311
218 221 223 224 225 225 215 221 222 226 229 229 229 230 233 237 239 242 245 247 250 256 261 265 269 273 277 279 282 285 289 292 294 296 299 302 304 305 306 308 309 310 310 309
221 224 227 230 231 226 221 224 225 227 227 228 229 232 237 240 243 245 248 252 255 259 263 268 272 276 279 282 285 288 292 294 295 296 298 301 303 304 304 306 307 307 307 307
223 224 228 232 234 226 221 227 231 233 234 235 237 237 241 244 246 248 252 254 257 260 265 270 274 277 281 284 287 289 291 293 295 296 298 299 301 302 303 304 305 306 306 305
229 229 231 234 236 232 230 234 237 240 241 242 243 244 245 247 249 253 256 257 259 263 267 272 276 279 283 285 288 290 291 293 295 296 297 298 300 301 302 303 303 304 305 304
233 233 234 235 236 236 239 241 242 243 244 246 248 249 250 252 254 256 259 262 264 267 271 274 277 280 283 286 289 290 291 293 295 296 297 297 299 300 301 302 303 303 304 304
236 238 238 239 240 240 243 245 246 246 248 250 251 252 254 256 258 261 264 266 268 271 273 276 279 282 284 287 288 290 291 293 294 295 296 298 299 299 300 301 302 303 303 303
239 239 241 241 241 243 244 246 247 249 251 252 253 254 256 259 262 264 267 269 271 273 276 278 280 282 285 287 288 290 291 292 293 294 296 297 299 300 300 301 302 303 303 303
241 241 243 244 244 246 247 249 251 252 254 254 255 257 259 262 265 267 269 271 273 275 277 279 281 283 285 286 288 289 290 291 293 294 296 297 299 300 301 301 302 303 304 304
242 244 245 246 246 248 249 251 254 255 256 257 258 260 262 265 266 268 269 271 274 276 278 279 281 283 285 286 287 288 289 291 292 294 295 297 298 299 300 301 302 303 304 304
Height
5823 5829 5834 5839 5843 5847 5851 5854 5857 5861 5864 5867 5869 5872 5874 5875 5876 5877 5878 5879 5879 5879 5879 5879 5879 5879 5878 5878 5877 5876 5876 5874 5873 5872 5871 5869 5868 5866 5864 5861 5859 5857 5854 5851
5823 5828 5833 5837 5841 5845 5849 5852 5855 5859 5862 5865 5868 5870 5872 5873 5875 5876 5877 5878 5878 5878 5878 5878 5878 5878 5877 5877 5876 5876 5875 5874 5873 5872 5870 5869 5867 5865 5863 5861 5858 5856 5854 5851
5822 5828 5831 5836 5840 5843 5847 5851 5855 5858 5860 5863 5867 5869 5870 5872 5874 5875 5876 5877 5877 5877 5877 5877 5877 5877 5877 5876 5875 5875 5874 5873 5872 5871 5870 5868 5866 5865 5863 5861 5858 5856 5853 5850
5821 5825 5830 5834 5838 5841 5846 5850 5854 5857 5860 5862 5866 5867 5869 5871 5872 5873 5875 5875 5875 5876 5876 5876 5876 5876 5876 5875 5875 5874 5873 5872 5871 5870 5869 5867 5866 5864 5862 5860 5858 5855 5853 5850
5821 5825 5830 5834 5838 5842 5845 5849 5853 5856 5859 5862 5864 5867 5869 5870 5871 5872 5873 5874 5874 5874 5875 5874 5874 5874 5875 5874 5874 5873 5872 5872 5871 5870 5868 5867 5865 5864 5862 5860 5858 5855 5853 5850
5822 5826 5830 5834 5838 5842 5845 5849 5852 5855 5857 5861 5863 5865 5868 5868 5870 5871 5872 5872 5873 5873 5873 5873 5873 5873 5874 5873 5873 5873 5872 5871 5870 5869 5868 5866 5865 5863 5861 5859 5857 5855 5852 5850
5823 5827 5831 5834 5837 5841 5845 5849 5851 5853 5856 5859 5861 5864 5867 5868 5869 5870 5871 5871 5872 5872 5873 5873 5873 5873 5873 5873 5872 5872 5872 5871 5870 5868 5867 5866 5864 5862 5861 5859 5856 5854 5852 5849
5824 5828 5831 5835 5838 5841 5844 5848 5852 5854 5855 5857 5859 5862 5866 5866 5867 5869 5870 5870 5871 5871 5872 5872 5872 5872 5872 5872 5872 5871 5871 5870 5869 5868 5867 5865 5863 5862 5860 5858 5856 5853 5851 5848
5825 5828 5831 5835 5838 5842 5844 5847 5850 5853 5855 5857 5858 5861 5863 5864 5866 5868 5869 5869 5870 5870 5871 5871 5871 5871 5872 5871 5871 5871 5871 5870 5869 5867 5866 5865 5863 5861 5859 5857 5855 5852 5850 5847
5826 5829 5832 5834 5838 5841 5844 5847 5849 5852 5853 5855 5857 5859 5862 5863 5865 5866 5867 5868 5869 5869 5870 5870 5870 5870 5871 5870 5870 5870 5870 5869 5868 5867 5866 5864 5862 5860 5858 5856 5854 5851 5848 5846
5827 5830 5832 5835 5837 5841 5844 5847 5848 5851 5853 5855 5856 5861 5861 5862 5863 5865 5866 5867 5867 5868 5868 5869 5869 5869 5869 5869 5869 5869 5869 5868 5867 5866 5865 5863 5861 5859 5857 5855 5852 5849 5847 5844
5827 5830 5832 5835 5838 5840 5843 5845 5848 5850 5852 5853 5856 5861 5859 5860 5862 5863 5864 5865 5866 5866 5867 5867 5868 5868 5868 5868 5868 5868 5867 5867 5866 5864 5863 5861 5860 5857 5855 5853 5850 5847 5844 5842
5828 5831 5832 5834 5838 5840 5841 5844 5846 5848 5850 5852 5854 5859 5858 5859 5860 5861 5863 5863 5864 5865 5865 5866 5866 5867 5867 5867 5866 5866 5866 5865 5864 5862 5861 5859 5857 5855 5853 5850 5847 5845 5842 5839
5828 5831 5834 5836 5837 5839 5840 5842 5844 5846 5848 5850 5852 5855 5856 5857 5858 5860 5861 5861 5862 5863 5863 5864 5864 5865 5865 5864 5864 5864 5863 5862 5861 5860 5858 5856 5855 5852 5850 5847 5844 5841 5838 5836
5828 5830 5832 5834 5836 5837 5839 5841 5842 5844 5846 5848 5851 5852 5854 5855 5856 5857 5858 5859 5860 5860 5861 5861 5862 5862 5862 5862 5861 5861 5860 5859 5858 5856 5855 5853 5851 5849 5846 5844 5841 5838 5835 5831
5826 5829 5830 5832 5834 5835 5837 5839 5840 5842 5844 5846 5848 5850 5851 5852 5854 5855 5856 5856 5857 5857 5858 5858 5859 5859 5859 5858 5858 5857 5857 5855 5854 5853 5851 5849 5847 5845 5842 5839 5836 5833 5830 5827
5825 5827 5829 5830 5831 5833 5835 5837 5838 5840 5841 5843 5845 5848 5848 5849 5851 5852 5853 5853 5854 5854 5855 5855 5855 5855 5855 5855 5854 5853 5853 5851 5850 5848 5846 5845 5842 5840 5837 5834 5831 5828 5824 5821
5822 5824 5826 5827 5830 5831 5836 5834 5835 5836 5838 5840 5842 5843 5845 5846 5847 5848 5849 5850 5850 5851 5851 5851 5851 5851 5851 5850 5850 5849 5848 5846 5845 5843 5841 5839 5837 5834 5831 5828 5825 5822 5818 5815
5819 5820 5822 5824 5825 5828 5831 5831 5832 5833 5835 5837 5838 5840 5841 5842 5843 5844 5845 5845 5846 5846 5846 5847 5847 5846 5846 5845 5845 5844 5842 5841 5839 5837 5835 5833 5830 5828 5825 5822 5818 5815 5811 5808
5815 5817 5819 5820 5821 5824 5828 5828 5828 5831 5832 5833 5834 5836 5837 5838 5839 5841 5840 5841 5841 5841 5842 5842 5841 5841 5841 5840 5839 5838 5836 5835 5833 5830 5828 5826 5823 5821 5817 5814 5810 5807 5803 5799
5810 5812 5814 5816 5817 5820 5823 5823 5825 5827 5830 5829 5830 5831 5832 5833 5835 5836 5835 5836 5836 5836 5836 5836 5836 5835 5834 5833 5832 5831 5829 5827 5825 5823 5821 5818 5815 5812 5809 5806 5802 5798 5794 5790
5806 5807 5809 5810 5812 5817 5818 5819 5820 5822 5823 5824 5825 5826 5827 5828 5829 5829 5830 5830 5830 5830 5830 5830 5829 5828 5827 5826 5825 5823 5822 5820 5817 5815 5812 5810 5806 5803 5800 5796 5792 5788 5784 5779
5800 5803 5804 5806 5810 5811 5812 5813 5814 5816 5817 5818 5819 5820 5821 5822 5822 5823 5823 5824 5824 5824 5824 5823 5822 5821 5820 5818 5817 5815 5813 5811 5808 5806 5803 5800 5797 5793 5789 5785 5781 5777 5772 5767
5794 5795 5797 5800 5802 5804 5805 5806 5808 5809 5811 5812 5813 5814 5815 5815 5816 5816 5817 5817 5817 5816 5816 5815 5814 5813 5811 5810 5808 5806 5804 5802 5799 5796 5793 5790 5786 5782 5778 5774 5769 5765 5760 5754
5786 5788 5790 5792 5794 5796 5798 5799 5801 5802 5803 5804 5805 5806 5807 5808 5808 5809 5809 5809 5809 5808 5807 5807 5806 5804 5803 5801 5799 5796 5794 5791 5789 5786 5782 5779 5775 5771 5767 5762 5757 5752 5746 5740
5778 5780 5782 5784 5786 5788 5790 5791 5793 5794 5795 5796 5797 5798 5799 5799 5800 5800 5800 5800 5799 5799 5798 5797 5796 5794 5793 5791 5788 5786 5783 5780 5778 5774 5771 5767 5763 5759 5754 5749 5744 5738 5732 5726